CZ-6A DEB

Satellite information

Favourite Embed

Satellite Type and Status

DEBRISIN ORBIT

Key statistics

Satellite CZ-6A DEB at a glance.

Uptime

438

Days in orbit

Revolutions

≈ 14.2

Per day

Orbit

LEO

Low Earth Orbit

Inclination

89.0

Latest

Satellite identification and parameters

Extended collection of information and parameters for CZ-6A DEB.

Object identification

Identified? True

Debris? True

Object name: CZ-6A DEB

International designator: 2024-140ED

Object number (NORAD): 60754

Object ID (CCSDS): 60754

Country: PEOPLES REPUBLIC OF CHINA (PRC)

Current information (Y/N): Y

RCS size: SMALL

Orbital parameters

Period: 101.468 minutes

Inclination: 88.9675 deg

SMA: 7206.311 km

Apoapsis: 867.459 km

Periapsis: 788.893 km

RAAN: 300.81 deg

Eccentricy: 0.0054512

Argument of periapsis: 270.4364 deg

Mean anomaly: 89.058 deg

Mean motion: 14.19166303 rev/day

Mean motion (dot): 0.00003132 rev/day2

B* drag term: 0.0014688749 1/REarth

Two-line elements (TLE)

Creation date: Oct. 16, 2025, 6:34 p.m.

Reference frame: TEME

Reference center: EARTH

Epoch: Oct. 16, 2025, 12:24 a.m. UTC

TLE line 0: 0 CZ-6A DEB

TLE line 1: 1 60754U 24140ED 25289.01675911 .00003132 00000-0 14689-2 0 9998

TLE line 2: 2 60754 88.9675 300.8100 0054512 270.4364 89.0580 14.19166303 59730

Live tracking on map

Real-time ground track for satellite CZ-6A DEB.

In-orbit conjunctions

A list of the most updated potential collisions computed for object CZ-6A DEB.

Target Orbit TCA Probability of collision Miss distance Type
CZ-6A DEB LEO 2025-01-03 23:07:09 0.000247104 433.0 (m) DEBRIS
CZ-6A DEB SSO 2025-01-01 21:04:06 0.0003991491 126.0 (m) DEBRIS
SL-16 DEB LEO 2024-12-24 15:54:34 0.0003115607 662.0 (m) DEBRIS
METEOR 2-8 DEB LEO 2024-11-27 01:53:34 0.0001609663 615.0 (m) DEBRIS
NOAA 16 DEB SSO 2024-11-18 06:00:40 0.000451434 68.0 (m) DEBRIS

Associated space launch

18 Low Earth Orbit communication satellites with Ku, Q and V band payloads for the G60 constellation operated by Shanghai Spacecom Satellite Technology (SSST) with funding backed by the Shanghai local government. Initial constellation will consist of 1296 satellites by 2027 with long term plans to expand it to 12000 satellites.

CZ-6A DEB was lifted into orbit during the mission ‘Long March 6A | G60 Polar Group 01’, on board a Long March 6A space rocket.

The launch took place on Aug. 6, 2024, 6:42 a.m. from Launch Complex 9A.

For more information about the launch, click the button.

Launch to space Long March 6A | G60 Polar Group 01
Long March 6A | G60 Polar Group 01

Agency: N/A

Status: Launch Successful

Launch date: Aug. 6, 2024, 6:42 a.m. UTC

Rocket: Long March 6A

Launch pad: Launch Complex 9A

Location: Taiyuan Satellite Launch Center, People's Republic of China

...

Latest news about this satellite

News about space launch
Brightness of first Chinese broadband constellation satellites alarms astronomers

The first satellites of a Chinese broadband constellation are significantly brighter than those of Western systems, posing a new challenge for astronomers.

News about space launch
Chinese rocket stage breaks up into cloud of more than 700 pieces of space debris

HELSINKI — A Chinese Long March 6A rocket’s upper stage has fragmented into a cloud of over 700 pieces of space debris, adding to concerns about long-term orbital safety. China […]

News about space launch
China's Thousand Sails Megaconstellation Kicks Off with Dangerous Debris Field

China's Thousand Sails Megaconstellation Kicks Off with Dangerous Debris Field


Newsletter sign-up

Weekly statistics, charts and insights to help you stay on top of the space industry.